CAPE
0 0 0 2 4 0 0 0 0 0 0 0 0 0 0 32 8 0 9 74 28 0 0 0 0 2 0 0 0 0 0 0 10 11 0 0 0 97 468 1045 1483 1649 1841 2612 2729 2705 2321 1978 1875 2012 2070 2052 2153 2221 2233 2257 2159 2382 2571 2624 2700 2826 3074 3143 3369 3592 3643 3510 3316 3273 3281 3416 3241 2956 2874 2836 2794 2841 2972 2870 2535 2390 2400 2381 2851 3172 3228
0 0 0 0 6 4 0 0 0 0 0 0 0 0 0 0 0 0 14 11 5 0 0 0 6 25 0 0 0 0 36 105 502 511 207 18 0 0 39 881 1394 2111 2151 2628 2873 2861 2658 2096 2039 1893 2019 2163 2142 2180 2234 2196 2255 2321 2522 2659 2838 2937 3080 3211 3432 3667 3732 3681 3572 3447 3445 3463 3500 3281 3106 3111 2980 2951 2972 2999 2905 2744 2621 2576 2620 2975 3266
0 0 0 0 1 5 3 0 0 0 0 0 0 0 0 0 0 0 0 0 0 0 0 420 418 152 0 0 0 299 592 848 936 955 551 182 592 688 906 13 907 1530 2156 2405 2927 2945 2846 2218 1966 1866 2096 2232 2136 2133 2304 2273 2305 2295 2506 2873 3001 3039 3202 3325 3501 3777 3827 3730 3656 3587 3571 3600 3664 3584 3345 3301 3243 3209 3212 3246 3172 3148 3000 2816 2662 2739 3070
0 0 0 0 0 9 11 3 0 0 0 0 0 0 0 0 0 19 6 1 0 0 262 421 337 70 0 0 336 842 1357 1677 1670 1911 1716 1790 2156 1990 2137 2356 1041 429 1638 1960 2856 2904 2660 2178 2021 1904 2199 2222 2199 2134 2335 2302 2233 2249 2505 2802 2950 3196 3182 3374 3720 3942 3892 3857 3787 3721 3661 3708 3848 3699 3592 3493 3477 3446 3352 3381 3421 3274 3171 3103 3110 2825 2844
0 0 0 1 4 0 2 4 2 0 0 0 0 0 269 172 78 9 24 2 49 326 147 193 356 706 625 374 482 1559 1754 1924 1688 1744 1860 2032 2246 2450 2636 2807 3052 1997 414 1122 2478 2710 2343 2043 1899 1891 2154 2164 2269 2259 2521 2467 2325 2261 2540 2788 3080 3288 3280 3512 3840 4011 3953 3905 3811 3837 3898 3875 3920 3820 3690 3594 3584 3556 3373 3416 3486 3495 3455 3309 3262 3138 2907
0 0 10 11 12 30 2 13 1 3 0 0 0 83 316 205 64 40 96 141 25 10 0 134 346 514 925 1588 1612 1451 1896 1953 1994 1895 1903 2159 2286 2514 2667 2971 3192 2687 1560 520 1163 2500 2641 2355 1800 1934 2182 2114 2274 2241 2512 2559 2453 2626 2752 2962 3278 3263 3408 3709 3894 4053 4003 3934 3970 3922 3949 3935 3954 3932 3887 3796 3711 3632 3537 3586 3584 3619 3403 3450 3413 3426 3279
0 0 1 1 3 6 43 119 82 23 2 2 66 308 96 84 73 41 46 71 18 0 0 23 126 274 520 942 1363 1348 1441 1715 1696 1784 1825 2133 2338 2518 2688 2906 3107 3012 1650 572 495 1755 2402 2058 1929 2057 2094 2130 2372 2393 2644 2594 2546 2722 2927 3107 3335 3419 3503 3784 3922 3992 3980 3971 3993 4000 3991 3982 3938 3985 3889 3934 3805 3656 3472 3500 3622 3662 3628 3569 3522 3618 3516
5 0 5 9 11 7 260 113 117 184 175 86 238 120 47 48 29 17 23 4 0 1 0 8 90 278 514 796 1250 1305 1445 1534 1697 1617 1775 1928 2138 2319 2522 2716 3007 3263 2359 764 198 774 2292 2005 1790 1934 2152 2030 2244 2366 2598 2607 2644 2825 3074 3284 3512 3566 3528 3796 3933 3889 3957 3963 3971 3964 3995 3992 3927 3884 3929 3903 3908 3697 3419 3348 3433 3514 3606 3468 3522 3534 3491
0 1 10 5 10 29 49 108 180 225 242 223 68 110 39 0 0 0 1 1 2 0 0 0 67 406 723 1047 1373 1012 1366 1107 1088 1316 1528 1709 1937 2082 2300 2478 2842 3000 2418 1100 481 836 1970 1782 1587 1989 2114 1990 2060 2165 2574 2647 2681 2889 3266 3378 3534 3671 3541 3732 3846 3775 3653 3685 3860 3845 3883 3850 3818 3818 3864 3837 3825 3759 3561 3345 3267 3363 3498 3399 3439 3370 3421
0 4 10 18 18 0 52 332 147 142 181 127 58 115 20 1 0 0 0 0 0 0 0 0 408 583 1206 1282 1183 1192 1133 1129 1164 1070 1256 1654 1931 2004 2252 2608 2750 2169 1366 1111 1052 1208 2029 1848 1609 1976 2159 2038 2247 2620 2699 2754 2796 3113 3150 3148 3441 3667 3566 3654 3615 3601 3611 3653 3765 3831 3950 3870 3817 3731 3732 3815 3811 3697 3585 3304 2971 3096 3314 3539 3516 3397 3279
11 13 7 9 7 69 238 76 174 148 88 155 188 236 258 22 36 0 0 0 11 138 68 154 341 1319 1310 1064 991 1169 1142 1094 1024 928 1092 1610 1865 2086 2266 2478 2434 1419 1288 1403 1179 1626 2184 1919 1924 2384 2338 2242 2339 2948 2909 2873 2978 3068 3027 3108 3376 3566 3490 3493 3527 3550 3585 3597 3720 3774 3835 3805 3738 3713 3744 3759 3656 3614 3518 3398 3135 3142 3141 3309 3384 3409 3288
21 43 4 6 12 1 95 39 32 99 103 125 350 206 37 3 89 108 36 0 39 327 446 565 477 692 809 705 721 848 975 1131 1024 1010 1146 1622 1863 1968 2188 2345 2690 2131 1615 1793 1466 1986 1985 1966 2169 2687 2368 2402 2628 3071 2965 2728 2754 2923 2990 3170 3378 3402 3356 3387 3541 3490 3456 3660 3735 3693 3830 3788 3824 3724 3665 3572 3632 3678 3610 3400 3301 3184 3094 3163 3331 3406 3347
1 3 18 33 58 200 50 45 36 47 168 318 302 61 15 2 46 0 60 2 82 358 434 479 682 284 66 247 551 854 1085 1253 1311 1343 1367 1379 1651 1906 1914 2351 2611 2208 2012 2038 2036 1794 1933 2255 2412 2580 2300 2471 2691 3059 2915 2914 2872 2786 3014 3124 3244 3401 3413 3352 3386 3448 3434 3602 3662 3625 3723 3859 3783 3648 3629 3599 3464 3585 3541 3311 3374 3382 3206 3202 3193 3431 3386
0 3 4 3 37 256 7 106 38 56 204 360 155 58 8 9 20 6 50 0 78 236 428 388 397 366 316 418 684 941 1175 1270 1311 1422 1416 1406 1349 1723 2000 2207 2555 2722 1994 2144 1950 1932 2334 2654 2557 2514 2582 2768 3376 3334 3224 3095 3086 2873 3036 3228 3437 3554 3561 3363 3383 3413 3392 3556 3620 3509 3671 3876 3931 3862 3762 3595 3544 3635 3480 3517 3620 3616 3655 3455 3442 3463 3530
0 7 8 18 19 57 0 2 130 9 172 61 8 13 0 88 87 47 78 10 80 213 399 352 370 336 430 672 904 1082 1259 1524 1638 1624 1540 1529 1333 1497 1913 2146 2302 2600 2612 2017 2071 2067 2462 2662 2665 2683 2791 3342 3540 3478 3414 3455 3245 3074 3172 3426 3639 3740 3814 3505 3453 3535 3593 3636 3669 3503 3576 3860 4043 4048 3930 3733 3735 3804 3815 3828 3915 3886 4077 3924 3829 3773 3839
10 8 22 55 146 39 28 2 1 4 2 12 7 2 7 1 89 67 79 23 74 166 353 442 491 597 753 889 1114 1304 1433 1565 1691 1641 1766 1731 1626 1438 1625 1875 2510 2352 2809 3050 2182 2083 2549 2557 2533 2786 2978 3487 3687 3826 3805 3739 3272 3203 3562 3769 3976 4058 3997 3776 3775 3819 3808 3802 3937 3748 3876 3968 4186 4301 4240 4071 4049 4063 4213 4076 3973 3912 3858 3760 3669 3627 3656
238 102 119 27 13 6 2 11 8 10 15 8 19 7 5 37 100 80 100 115 131 50 391 440 528 760 889 1106 1359 1598 1718 1785 1858 1865 1800 1782 1723 1583 1669 1990 2513 2605 2567 3205 3193 2415 2405 2434 2611 2879 2959 3672 4052 4039 4041 3865 3515 3572 3961 4208 4382 4358 4220 4058 4068 4092 4194 4177 4233 4130 4051 4156 4398 4498 4576 4445 4374 4430 4420 4150 3869 3822 3746 3866 3958 3884 3844
14 0 0 7 7 6 5 1 1 1 4 7 4 2 5 51 84 96 106 142 109 72 266 441 395 582 920 1189 1496 1628 1637 1719 1782 1798 1960 2082 2054 1973 1910 1776 2270 2647 2680 2782 3319 3625 3472 3126 3046 3202 3406 3947 4250 4149 4226 4151 3881 4199 4686 4858 4744 4648 4532 4313 4469 4358 4376 4377 4585 4458 4392 4369 4565 4727 4728 4596 4527 4626 4352 4066 4025 3883 4076 4045 4068 4057 4170
2 42 11 6 7 12 13 2 2 5 3 7 2 16 12 10 47 71 64 148 91 0 31 357 449 473 752 819 1338 1640 1550 1666 1829 2001 2164 2216 2268 2249 1991 1898 1947 2234 2710 3026 3059 3227 3507 3611 3616 3092 3392 3514 3986 4019 4446 4339 4193 4836 4916 5037 4868 4759 4770 4569 4641 4466 4544 4456 4598 4664 4563 4524 4683 4817 4747 4783 4718 4761 4374 4152 4141 4206 4076 4115 4183 3735 3823
2 20 8 4 2 10 8 17 28 18 13 6 5 8 18 8 33 61 0 4 156 0 157 317 349 456 611 809 1232 1578 1581 1754 1780 1998 2161 2263 2450 2407 2281 2386 2174 2059 2138 2539 3076 3220 3228 3437 3997 4186 4377 4434 4669 4862 4473 3994 3924 4551 4550 4782 4679 4661 4708 4639 4759 4768 4688 4502 4532 4774 4720 4603 4557 4739 4723 4696 4882 4855 4728 4453 4444 4375 4130 4101 4088 3912 3941
3 6 15 3 1 7 19 18 42 16 2 0 0 8 5 7 18 22 46 0 0 0 2 27 350 349 522 845 938 1145 1494 1760 1756 1871 2079 2290 2557 2536 2546 2601 2521 2490 2221 2083 2325 2686 3033 3500 3658 3845 3929 4139 4340 4448 4162 3994 4142 4622 4648 4623 4507 4684 4692 4706 4661 4727 4754 4641 4605 4681 4935 4904 4822 5955 6021 4948 4910 4892 4850 5071 4901 4750 4678 4055 4038 4040 4524
9 9 14 7 3 6 1 0 1 15 5 4 1 1 12 35 25 18 12 52 57 0 0 248 336 480 686 840 964 1021 1275 1325 1703 1725 2125 2299 2403 2605 2732 2857 2748 2527 2344 2133 2152 2177 2441 3012 3207 3574 3884 4238 4408 4602 4873 4982 5066 5263 4926 4653 4554 4814 4829 4895 4870 4842 4754 4775 4585 4544 4906 5097 4587 4271 4234 4483 4385 4491 5138 4636 4437 4221 3990 4908 5115 5055 4344
6 6 19 11 10 7 2 7 8 4 3 2 3 2 2 28 25 21 10 26 5 0 1 42 290 449 662 799 825 1116 1252 1260 1562 1760 1926 2216 2535 2544 2726 2818 2736 2674 2612 2418 2280 2371 2467 2642 2682 2852 3060 3567 3926 4508 4897 5294 5316 4984 5167 4922 4610 4871 4758 4975 5188 5100 5202 5176 5046 4906 5023 5430 5199 4396 4198 4314 4387 4314 4336 4636 4486 4355 4250 4137 4246 4375 4124
10 15 6 11 8 7 2 2 2 1 2 2 2 2 4 4 31 39 47 18 39 4 30 27 283 358 386 607 676 742 1014 1072 1384 1266 1198 1456 1767 2296 2604 2678 2762 2760 2774 2713 2618 2540 2630 2746 2902 3022 3263 3326 3446 3778 4335 4764 5642 5814 5464 5452 5249 5301 5223 5308 5183 5068 5014 5110 5300 5472 5309 5384 5421 4828 4506 4336 4196 4231 4294 4355 4415 4390 4268 4106 4075 4209 4243
11 11 8 3 3 5 4 10 3 3 8 23 9 4 5 8 12 10 29 23 14 10 11 23 115 299 392 614 679 618 838 1073 1098 1165 1117 1111 1542 2001 2009 1996 2604 2493 2896 2876 2924 2780 2836 2944 3058 3197 3252 3397 3571 3690 3866 4351 4970 5202 5266 5769 5591 5644 5597 5276 5202 5207 5369 5534 5387 5275 4828 5084 5116 4997 4709 4442 4283 3902 4083 4156 4240 4282 4268 4184 4051 3947 3900
13 8 6 2 7 6 6 4 2 5 3 5 16 8 6 10 11 8 7 11 22 7 3 30 69 175 352 405 655 643 610 840 869 1015 1137 1220 1180 1676 1981 1623 1746 2162 2310 2843 2982 3061 3059 3110 3100 3313 3483 3618 3607 3708 3840 3836 4225 4783 5121 5119 5199 5220 5399 5356 5314 5126 4939 4616 4708 4800 4710 4290 4296 4511 4049 4049 3971 3843 3632 3710 3901 3972 3982 3977 3982 3934 3911
14 12 1 1 0 0 2 6 9 5 7 12 12 9 4 4 7 11 8 7 5 5 3 5 52 105 274 433 499 619 691 806 701 642 953 979 1036 1178 1516 1460 1288 1499 1852 2558 2802 2963 3063 3180 3204 3276 3394 3445 3549 3586 3636 3672 3646 3841 4220 4690 4748 4681 4698 5309 4924 4926 4901 4992 4816 4703 4853 4651 4324 4141 4254 4264 4226 3890 3496 3289 3506 3628 3682 3713 3755 3810 3881
12 14 12 1 7 7 9 6 1 1 4 14 21 10 4 2 6 4 4 4 1 0 0 5 30 119 197 144 225 431 564 734 705 756 811 886 969 1061 1149 1258 1264 1054 1194 1542 2743 2849 3081 3061 3258 3177 3230 3254 3222 3112 3178 3038 3017 3119 3286 3453 3854 4012 4639 4705 4578 4670 4768 4946 5046 4916 4802 4730 4660 4097 4222 4488 3869 3469 3304 3405 3504 3688 3725 3674 3652 3735 3806
3 5 9 8 10 4 5 11 10 5 5 5 9 17 9 5 3 3 5 4 4 2 0 0 0 8 166 150 73 304 316 489 350 474 750 860 1024 1095 1146 1341 1174 851 953 1373 1411 2523 2784 2860 2901 2693 2508 2111 1789 1705 1858 2030 2284 2562 2575 2714 2871 3323 3689 4325 4301 4445 4642 4784 4940 4803 4223 4452 4469 4494 4312 3730 3524 3427 3408 3554 3718 3827 3893 3814 3636 3618 3750
5 2 2 2 3 5 8 8 4 4 2 2 5 12 15 11 7 2 1 8 2 1 4 1 0 0 2 29 55 268 345 336 411 558 600 657 862 1081 1094 998 977 726 619 845 1414 1933 1879 2077 2070 1796 1455 1073 823 1405 1665 1896 2125 2201 2470 2491 2679 2872 3030 3292 3601 4032 4406 4259 3935 3986 3883 4217 4264 3990 3526 3356 3258 3298 3328 3783 3997 3974 3657 3535 3422 3503 3654
1 3 6 4 2 1 3 3 4 2 1 3 5 18 10 6 7 9 9 5 2 3 2 2 1 0 0 0 0 0 1 5 35 178 474 610 736 810 814 746 766 582 398 521 1054 1302 1344 1316 1217 1104 876 770 778 777 1340 1408 1781 1990 2185 2374 2522 2814 3080 3363 3295 3341 3377 3490 3747 3689 3656 3643 3622 3516 3431 3484 3654 3864 3984 3925 3758 3394 3087 2910 2920 2977 3127
5 4 7 2 3 1 2 4 8 4 1 0 3 8 26 16 10 7 8 5 1 0 1 4 2 0 0 0 0 0 3 0 4 18 17 147 342 313 462 684 626 130 25 339 615 696 794 825 794 491 527 758 774 774 776 974 1517 1570 1430 2096 2289 2444 2904 3147 2995 3113 2590 3059 3343 3456 3516 3568 3770 3852 3888 3974 4057 4068 4119 4096 3815 3406 3009 2880 2847 2947 3043
7 2 3 3 1 1 3 2 6 4 3 1 4 6 12 28 25 4 5 4 11 17 12 7 17 8 5 1 2 4 22 21 31 21 7 5 5 4 112 292 104 74 4 78 80 54 77 223 160 37 8 192 553 595 638 714 811 1250 1375 1313 1332 1759 2276 2732 2888 2917 2746 2619 2610 2818 2975 3163 3313 3551 3737 3878 3972 4089 4055 3991 3952 3866 3568 3218 3059 2924 2967
8 2 13 10 12 8 3 2 1 6 6 7 7 7 2 13 18 26 5 9 3 13 20 20 24 26 21 8 12 7 2 7 15 8 5 4 8 8 3 5 7 12 12 6 5 5 4 8 7 4 3 1 23 16 334 486 662 742 751 863 974 936 841 1199 1941 2488 2875 2957 2908 2990 3040 3056 3143 3228 3417 3500 3428 3378 3355 3244 3210 3288 3307 3147 3009 2932 3011
6 9 13 13 12 5 3 5 11 12 4 2 3 9 6 8 13 9 26 33 24 14 8 6 10 16 14 9 9 6 4 3 2 3 5 4 5 9 12 10 6 6 9 6 4 4 5 7 5 1 2 4 0 0 0 0 320 538 543 608 652 666 710 813 801 927 1115 1436 1767 2448 2783 2931 3018 3104 3148 3074 3058 2940 2811 2727 2768 2826 3080 3254 3203 3186 3139
4 7 7 11 14 17 10 3 2 10 12 10 6 8 4 4 8 6 10 11 10 13 27 22 14 11 10 5 4 4 3 3 2 3 3 6 6 10 5 5 5 4 6 6 5 5 4 4 7 1 2 1 0 0 0 0 20 54 480 344 189 421 560 591 624 700 864 990 1006 1212 1417 1657 2162 2757 2976 3137 3304 3307 3143 2769 2704 2675 2733 2743 2825 2966 3156
5 7 8 9 12 17 16 15 9 9 12 6 9 9 6 7 9 6 17 17 18 13 4 11 9 4 4 5 8 5 10 4 4 8 8 14 14 7 6 4 3 5 6 5 6 9 12 8 6 4 5 2 0 0 0 0 0 1 2 2 43 377 507 470 492 522 581 699 823 1012 1124 1208 1396 1762 2287 2704 3005 3291 3303 3334 3149 2857 2652 2550 2577 2623 2886
6 10 10 10 12 14 18 17 5 9 8 8 5 14 20 10 7 4 3 4 4 7 4 5 4 4 6 4 3 6 13 18 7 2 3 3 4 5 2 7 9 10 8 9 14 13 16 12 6 5 5 7 5 3 1 0 0 0 0 3 26 0 80 190 212 384 2 484 640 752 851 929 1066 1232 1660 2211 2476 2484 2615 2826 3080 3122 2666 2428 2410 2470 2703
12 13 10 9 10 10 16 18 15 7 6 6 8 20 13 9 8 4 5 4 6 8 5 5 4 4 4 4 4 5 10 6 3 2 6 6 4 3 2 3 3 6 21 20 24 21 17 10 6 6 6 6 6 4 1 0 0 0 0 0 0 0 1 50 0 0 0 160 383 539 657 680 692 815 1089 1307 1479 1780 1965 2143 2334 2573 2739 2649 2429 2335 2412
2 6 8 10 10 12 15 18 22 27 20 9 12 22 14 7 5 6 6 6 7 10 5 5 4 4 4 5 4 4 4 3 3 3 4 3 4 4 4 6 10 13 12 11 21 18 14 6 5 9 12 12 9 10 8 3 0 0 0 0 0 0 0 0 0 0 15 39 166 278 444 570 614 685 773 902 1056 1181 1333 1456 1639 1811 2111 2503 2795 2659 2462
24 2 3 10 1 0 6 1 14 26 30 31 25 23 20 16 6 3 6 7 6 5 4 4 3 4 4 5 6 4 4 3 3 2 2 2 3 5 5 4 12 12 6 6 13 12 7 7 10 11 12 10 10 7 10 4 1 2 3 0 1 0 1 1 1 1 1 0 9 147 102 362 474 540 615 692 778 913 988 1045 1118 1315 1621 1794 2087 2294 2151
28 2 2 3 10 13 9 9 8 24 32 36 33 24 28 22 13 5 4 4 4 4 5 6 6 4 3 3 4 4 6 4 3 3 3 4 3 3 3 3 24 13 10 8 7 5 6 6 9 7 7 9 9 5 4 8 8 7 3 4 5 5 4 3 4 4 4 2 1 0 1 289 497 487 522 579 637 657 685 712 805 1176 1450 1616 1786 1703 1444
27 69 17 5 8 5 2 5 13 16 22 27 31 26 25 20 22 13 2 2 4 5 6 5 2 0 2 2 3 3 4 6 7 6 6 6 7 8 8 13 19 15 10 10 6 4 5 5 6 6 3 2 4 1 0 2 5 7 6 4 7 6 5 4 4 4 6 6 8 5 1 57 424 526 525 519 539 562 599 608 616 636 692 1015 1276 1341 1273
6 26 28 14 8 6 11 0 9 7 3 10 29 26 19 17 18 17 13 10 6 5 3 2 2 2 4 3 3 2 3 6 4 10 7 6 4 14 16 15 15 14 11 14 9 5 4 5 3 2 6 3 1 0 0 0 4 4 4 6 7 5 6 5 5 4 2 4 6 4 404 438 403 422 483 536 546 489 448 471 535 565 611 629 658 780 778
12 21 56 107 32 15 7 10 15 14 16 2 26 23 24 25 14 14 15 14 12 12 7 3 2 9 6 4 9 7 9 7 7 8 6 5 3 3 24 20 16 17 11 11 16 15 11 4 6 7 4 1 0 1 0 0 1 0 2 5 0 0 1 2 2 5 4 3 16 72 330 416 462 457 407 348 350 380 444 477 540 539 511 515 529 534 544
125 128 168 105 118 124 75 34 11 14 15 8 1 16 28 28 22 16 16 12 14 11 11 9 8 5 4 12 12 2 4 5 10 9 16 18 6 21 24 23 26 19 13 14 14 17 23 17 10 6 2 1 2 0 0 0 1 0 0 2 4 3 2 0 3 5 6 3 16 18 39 134 286 377 483 464 498 467 394 401 361 477 500 508 520 544 516
142 128 121 119 134 148 128 80 39 12 18 20 23 0 10 4 17 0 4 16 8 10 12 17 18 11 6 2 6 17 1 2 5 8 14 11 20 13 13 7 6 4 7 10 10 14 18 23 14 6 10 19 36 25 13 15 2 0 0 0 0 0 0 0 0 0 0 0 0 4 5 5 54 101 192 211 254 277 360 392 374 279 301 398 395 329 178
48 102 113 145 151 170 154 112 61 3 12 14 17 24 16 16 26 35 0 1 13 4 3 15 17 22 19 9 8 1 14 17 4 7 12 12 12 8 2 7 2 0 0 1 2 0 0 1 1 3 8 14 17 16 23 17 4 0 0 0 0 0 0 0 0 0 0 8 6 0 0 1 1 26 39 50 95 71 46 57 82 51 0 0 0 3 5
28 85 145 164 127 108 70 13 39 48 7 34 38 23 23 25 34 16 0 0 9 6 2 3 4 11 11 28 23 9 13 8 13 10 14 12 10 11 6 5 3 1 0 0 0 0 0 0 0 2 3 5 7 4 0 4 3 0 0 0 0 0 0 0 0 0 0 0 2 3 0 4 9 15 42 46 27 8 0 0 0 0 0 0 0 0 0
62 88 124 90 36 75 37 6 0 11 14 6 19 0 4 9 2 12 0 1 1 1 6 0 0 0 12 0 0 8 25 19 23 16 9 12 8 16 16 14 12 2 2 5 0 2 0 0 0 0 0 0 1 1 10 14 11 9 8 1 10 5 1 0 0 0 0 0 0 0 0 0 0 3 1 0 0 0 0 0 0 0 0 0 0 0 0
78 102 86 158 81 28 38 93 8 7 75 57 17 0 0 14 12 15 12 7 1 0 1 0 0 0 12 2 2 1 18 9 27 22 18 14 10 6 14 18 12 6 4 4 11 8 5 2 0 0 5 0 1 2 2 2 12 18 16 7 0 0 14 20 18 23 23 20 18 15 9 4 0 0 0 0 0 0 0 0 0 0 0 0 0 0 0
0 83 148 129 96 43 40 50 44 19 77 26 43 38 23 10 13 17 15 7 1 4 8 4 0 3 0 8 0 1 18 14 22 20 24 23 14 11 6 8 17 15 10 11 8 15 25 29 15 3 0 0 0 0 0 6 6 0 0 0 2 9 21 27 23 22 20 13 6 4 0 0 0 0 0 0 0 0 0 0 0 0 0 0 0 0 0
Wind_Speed
nan nan nan nan nan nan nan nan nan nan nan nan nan nan nan nan nan nan nan nan nan nan nan nan nan nan nan nan nan nan nan nan nan nan nan nan nan nan 42 39 36 33 31 30 27 26 24 22 23 25 26 25 25 24 22 22 23 23 23 22 22 23 24 22 22 23 24 25 25 24 24 25 24 23 24 24 25 24 22 20 20 18 17 16 16 15 15
nan nan nan nan nan nan nan nan nan nan nan nan nan nan nan nan nan nan nan nan nan nan nan nan nan nan nan nan nan nan nan 56 58 57 57 nan nan nan nan 41 37 34 31 29 27 26 24 21 21 23 26 26 25 23 21 22 23 24 25 24 24 23 23 22 24 25 26 27 27 26 25 24 24 25 25 26 26 24 22 21 22 21 20 18 17 17 17
nan nan nan nan nan nan nan nan nan nan nan nan nan nan nan nan nan nan nan nan nan nan nan 52 46 43 nan nan nan 52 55 58 59 60 61 61 61 61 58 nan 43 39 36 32 30 27 23 21 20 23 25 26 26 22 21 22 23 25 26 26 25 24 24 24 26 27 28 27 27 26 25 25 26 25 26 27 27 26 25 24 23 23 22 20 18 18 17
nan nan nan nan nan nan nan nan nan nan nan nan nan nan nan nan nan nan nan nan nan nan 54 52 46 nan nan nan 46 51 55 60 61 61 63 65 64 63 60 58 54 47 40 35 32 26 22 21 22 23 26 27 26 23 22 22 23 25 26 26 26 26 25 26 27 28 28 27 26 26 26 25 26 25 26 27 26 26 25 25 25 24 22 21 20 19 19
nan nan nan nan nan nan nan nan nan nan nan nan nan nan 67 68 nan nan nan nan nan 59 56 52 49 47 45 42 44 50 54 58 60 61 62 64 64 64 62 59 54 48 44 38 32 27 24 25 24 21 24 26 24 24 24 24 25 26 26 26 27 27 27 27 27 28 28 27 26 26 26 26 27 27 25 25 25 25 24 25 26 23 22 22 21 21 19
nan nan nan nan nan nan nan nan nan nan nan nan nan nan 65 68 nan nan nan 68 nan nan nan 52 51 48 46 46 45 44 48 53 58 60 61 62 63 62 61 59 56 53 48 43 36 29 27 25 22 21 24 26 26 28 30 29 27 26 27 27 28 28 28 27 27 27 27 26 26 25 26 26 26 25 24 23 23 24 25 26 24 23 22 22 22 21 19
nan nan nan nan nan nan nan 62 nan nan nan nan nan 75 nan nan nan nan nan nan nan nan nan nan 49 47 41 39 39 39 45 50 51 55 58 60 61 60 59 57 56 53 49 42 37 33 27 25 27 27 27 29 33 32 31 29 28 28 28 28 29 29 28 26 27 27 26 25 25 25 25 25 25 23 22 23 23 24 24 24 23 23 22 22 22 20 19
nan nan nan nan nan nan 56 54 54 61 63 nan 72 73 nan nan nan nan nan nan nan nan nan nan nan 47 41 36 36 38 43 47 48 50 52 55 57 58 58 58 55 51 46 41 36 33 32 31 31 28 27 30 33 32 32 30 29 29 30 28 29 31 28 25 26 27 26 25 25 25 24 23 22 21 21 22 22 23 23 23 23 24 23 22 20 19 17
nan nan nan nan nan nan nan 46 51 56 58 60 nan 62 nan nan nan nan nan nan nan nan nan nan nan 46 41 34 35 41 50 47 46 46 47 49 52 55 56 55 54 50 42 39 37 38 37 34 33 30 31 32 33 32 31 30 29 30 29 28 29 30 27 24 25 26 25 24 24 23 23 21 19 19 21 21 22 24 22 21 22 22 22 21 20 18 17
nan nan nan nan nan nan nan 56 53 56 67 70 nan 66 nan nan nan nan nan nan nan nan nan nan 55 47 37 36 37 54 56 50 48 47 44 44 47 50 51 51 48 44 40 38 37 37 35 33 33 34 33 34 34 32 31 31 29 29 26 26 29 30 26 24 25 26 26 25 24 23 22 20 19 19 20 21 22 22 20 20 19 20 21 21 20 18 17
nan nan nan nan nan nan 50 nan 56 61 nan 69 68 61 56 nan nan nan nan nan nan 68 nan 61 55 41 35 38 50 58 56 52 47 45 43 41 43 44 45 45 45 42 39 38 37 38 37 37 39 39 37 36 34 33 31 29 27 26 23 25 28 28 25 25 25 26 26 25 24 22 20 19 19 19 19 20 21 21 20 20 19 20 20 20 19 19 17
nan nan nan nan nan nan nan nan nan nan 65 68 62 57 nan nan nan 64 nan nan nan 69 65 60 56 56 47 51 53 55 53 50 45 42 42 42 41 40 39 41 42 39 36 36 36 36 36 38 41 40 39 38 36 34 30 28 25 22 21 24 27 26 26 26 25 26 27 25 23 21 19 19 19 19 20 20 19 19 19 19 19 19 19 18 17 18 18
nan nan nan nan nan 44 nan nan nan nan 58 58 54 nan nan nan nan nan nan nan nan 70 67 63 56 55 nan 51 51 51 49 47 45 44 44 42 39 39 39 40 39 35 34 32 33 33 36 38 39 39 39 40 39 36 32 28 23 19 21 27 29 27 26 25 25 25 26 25 23 21 20 20 20 19 19 18 18 18 18 18 18 18 17 18 17 17 17
nan nan nan nan nan 50 nan 54 nan nan 50 52 59 nan nan nan nan nan nan nan nan 70 67 62 57 56 57 55 53 53 49 44 44 44 45 44 41 39 39 38 37 36 30 28 29 30 33 33 35 37 40 42 42 37 31 25 22 24 27 30 30 28 26 25 24 24 24 24 23 22 21 21 20 18 18 18 18 18 18 19 18 18 18 18 18 17 17
nan nan nan nan nan nan nan nan 43 nan 49 nan nan nan nan nan nan nan nan nan nan 71 68 64 60 59 60 59 58 56 51 48 48 48 48 46 45 44 42 40 38 35 31 26 25 26 29 29 31 34 37 40 39 34 26 24 28 29 30 31 30 27 26 25 24 23 23 23 23 22 21 20 19 18 19 18 18 18 18 18 18 17 17 17 16 16 15
nan nan nan nan 42 nan nan nan nan nan nan nan nan nan nan nan nan nan nan nan nan 70 68 64 62 61 62 62 62 58 52 50 53 52 49 49 49 49 47 41 39 32 27 26 24 24 27 28 29 31 33 36 34 28 25 31 33 32 32 31 30 27 26 25 24 23 23 22 22 21 20 19 18 18 18 18 17 18 17 17 17 15 15 13 12 11 10
31 34 38 nan nan nan nan nan nan nan nan nan nan nan nan nan 62 nan 60 63 64 nan 68 65 63 63 64 64 63 58 54 54 55 53 53 53 54 52 51 48 42 34 27 27 30 29 28 28 30 29 30 31 31 30 33 35 34 33 33 32 29 27 26 25 23 22 22 22 20 20 19 18 17 16 16 16 16 16 16 15 13 13 13 13 12 11 11
nan nan nan nan nan nan nan nan nan nan nan nan nan nan nan nan nan nan 58 62 63 nan 65 65 63 64 66 67 64 61 58 58 58 57 58 60 59 56 53 51 45 38 30 27 27 31 35 35 34 32 32 33 33 35 37 36 35 34 33 31 29 28 26 24 22 22 21 20 18 17 17 17 17 17 17 16 16 17 16 15 14 14 14 13 12 12 12
nan nan nan nan nan nan nan nan nan nan nan nan nan nan nan nan nan nan nan 60 nan nan nan 65 63 62 65 67 65 62 61 61 61 62 63 64 60 57 56 53 50 43 38 34 33 31 35 36 36 36 36 36 37 37 38 36 35 35 32 30 30 28 26 25 24 23 21 20 19 18 17 19 19 19 19 19 18 18 18 17 17 17 16 15 14 15 14
nan nan nan nan nan nan nan nan nan nan nan nan nan nan nan nan nan nan nan nan 59 nan 60 64 65 63 65 68 66 64 65 64 62 63 66 67 63 61 59 57 54 50 45 43 41 39 36 37 39 39 39 40 38 38 37 36 34 34 31 30 29 28 28 28 28 25 23 23 21 22 21 21 22 22 21 20 20 20 20 20 20 18 18 17 18 17 17
nan nan nan nan nan nan nan nan nan nan nan nan nan nan nan nan nan nan nan nan nan nan nan nan 65 65 65 67 67 66 66 66 65 65 67 66 64 61 60 56 55 52 50 47 45 46 47 44 41 40 40 40 39 37 37 36 36 34 32 31 31 31 32 31 30 29 28 27 25 25 26 25 27 34 29 24 22 23 23 23 22 21 20 21 21 20 19
nan nan nan nan nan nan nan nan nan nan nan nan nan nan nan nan nan nan nan nan nan nan nan 57 61 66 65 68 68 68 69 68 67 67 69 66 67 65 60 54 56 55 53 51 49 49 48 47 46 46 46 44 41 36 34 36 36 35 34 33 33 34 34 33 32 33 31 31 30 29 30 29 37 41 46 49 46 38 34 44 46 46 44 32 31 27 22
nan nan nan nan nan nan nan nan nan nan nan nan nan nan nan nan nan nan nan nan nan nan nan nan 57 63 66 68 69 69 72 72 69 69 73 72 66 64 61 60 59 58 55 52 50 50 50 50 49 48 47 46 44 41 40 36 34 36 36 37 36 36 35 34 35 35 37 37 36 35 35 34 38 41 41 47 54 53 49 47 49 50 49 48 48 47 42
nan nan nan nan nan nan nan nan nan nan nan nan nan nan nan nan nan nan nan nan nan nan nan nan 56 60 64 68 69 70 73 74 72 73 74 72 66 62 61 61 60 59 56 53 51 49 48 49 50 49 49 48 45 41 38 40 39 36 37 38 38 37 37 37 40 39 38 38 38 38 37 38 41 38 38 41 44 55 56 53 55 56 55 54 52 51 51
nan nan nan nan nan nan nan nan nan nan nan nan nan nan nan nan nan nan nan nan nan nan nan nan 53 57 62 66 69 71 72 75 75 74 74 74 73 68 64 62 61 60 56 53 50 49 48 49 51 50 50 50 49 45 42 39 41 40 38 37 37 37 37 38 39 38 38 38 36 36 35 37 41 39 37 37 40 45 52 57 59 60 61 59 57 54 53
nan nan nan nan nan nan nan nan nan nan nan nan nan nan nan nan nan nan nan nan nan nan nan nan nan 56 61 64 68 70 72 75 77 75 73 75 74 73 70 65 60 58 59 57 54 53 53 53 53 53 53 52 51 49 45 43 41 40 40 40 40 39 39 39 40 40 40 40 38 36 35 34 34 35 34 36 35 41 45 45 49 54 61 61 55 51 55
nan nan nan nan nan nan nan nan nan nan nan nan nan nan nan nan nan nan nan nan nan nan nan nan nan 54 59 63 67 70 71 74 76 76 75 75 75 72 69 66 66 64 61 60 59 56 56 56 56 57 58 56 54 52 48 45 43 43 40 38 40 46 48 41 38 41 41 41 39 39 39 37 36 35 35 36 38 42 38 37 40 45 47 49 52 49 49
nan nan nan nan nan nan nan nan nan nan nan nan nan nan nan nan nan nan nan nan nan nan nan nan nan 53 58 61 67 69 71 74 76 77 76 75 74 71 70 69 68 67 64 62 60 59 57 57 58 60 60 59 57 54 51 48 45 44 42 39 38 38 39 39 39 40 40 41 42 43 42 41 40 40 39 41 42 41 41 47 50 49 49 49 49 49 55
nan nan nan nan nan nan nan nan nan nan nan nan nan nan nan nan nan nan nan nan nan nan nan nan nan nan 56 61 nan 69 70 71 74 77 76 75 74 73 71 70 69 68 67 66 64 62 60 59 60 61 62 60 58 56 53 52 50 49 48 47 45 43 42 44 42 42 42 44 45 45 44 43 43 43 45 45 43 46 47 47 48 48 49 48 49 51 52
nan nan nan nan nan nan nan nan nan nan nan nan nan nan nan nan nan nan nan nan nan nan nan nan nan nan nan nan nan 66 66 68 71 74 75 75 75 74 74 73 71 70 68 68 67 64 62 61 61 62 62 62 61 59 58 55 53 53 52 52 51 49 49 49 46 46 46 48 49 48 44 43 43 42 41 43 45 45 44 44 44 44 45 45 46 48 50
nan nan nan nan nan nan nan nan nan nan nan nan nan nan nan nan nan nan nan nan nan nan nan nan nan nan nan nan nan nan nan nan nan 71 73 74 76 76 75 76 76 73 69 66 65 64 64 64 64 64 64 63 63 62 61 59 57 56 55 53 52 55 56 50 49 45 44 43 42 40 42 40 40 40 43 42 41 40 40 40 39 39 40 42 42 44 47
nan nan nan nan nan nan nan nan nan nan nan nan nan nan nan nan nan nan nan nan nan nan nan nan nan nan nan nan nan nan nan nan nan nan nan 76 78 79 79 78 77 75 nan 67 65 66 66 66 67 67 66 67 66 65 63 61 59 58 57 56 55 53 54 53 47 47 43 42 41 40 39 38 39 39 41 40 40 41 40 39 38 38 39 40 41 42 44
nan nan nan nan nan nan nan nan nan nan nan nan nan nan nan nan nan nan nan nan nan nan nan nan nan nan nan nan nan nan nan nan nan nan nan nan nan nan 80 78 76 nan nan nan nan nan nan 70 69 nan nan 68 68 68 68 66 63 61 60 59 57 56 56 57 54 49 49 45 43 41 41 40 39 38 38 38 39 40 41 42 41 41 41 42 44 43 42
nan nan nan nan nan nan nan nan nan nan nan nan nan nan nan nan nan nan nan nan nan nan nan nan nan nan nan nan nan nan nan nan nan nan nan nan nan nan nan nan nan nan nan nan nan nan nan nan nan nan nan nan nan nan 70 69 66 65 64 63 61 59 58 56 55 54 50 46 44 45 45 43 42 41 39 38 37 38 41 43 45 45 45 46 46 47 50
nan nan nan nan nan nan nan nan nan nan nan nan nan nan nan nan nan nan nan nan nan nan nan nan nan nan nan nan nan nan nan nan nan nan nan nan nan nan nan nan nan nan nan nan nan nan nan nan nan nan nan nan nan nan nan nan 68 68 68 67 66 64 62 60 58 54 50 47 47 47 47 47 46 45 43 41 39 40 40 41 43 45 48 49 48 48 48
nan nan nan nan nan nan nan nan nan nan nan nan nan nan nan nan nan nan nan nan nan nan nan nan nan nan nan nan nan nan nan nan nan nan nan nan nan nan nan nan nan nan nan nan nan nan nan nan nan nan nan nan nan nan nan nan nan nan 67 67 68 67 65 64 62 58 54 51 50 50 50 52 51 50 48 46 44 42 42 42 42 43 45 47 48 50 50
nan nan nan nan nan nan nan nan nan nan nan nan nan nan nan nan nan nan nan nan nan nan nan nan nan nan nan nan nan nan nan nan nan nan nan nan nan nan nan nan nan nan nan nan nan nan nan nan nan nan nan nan nan nan nan nan nan nan nan nan nan 70 68 66 64 62 59 56 54 53 52 52 52 52 52 50 48 46 45 44 43 43 43 43 44 46 49
nan nan nan nan nan nan nan nan nan nan nan nan nan nan nan nan nan nan nan nan nan nan nan nan nan nan nan nan nan nan nan nan nan nan nan nan nan nan nan nan nan nan nan nan nan nan nan nan nan nan nan nan nan nan nan nan nan nan nan nan nan nan nan 67 66 65 nan 60 58 56 54 53 53 53 54 53 52 50 48 47 45 45 44 44 43 44 47
nan nan nan nan nan nan nan nan nan nan nan nan nan nan nan nan nan nan nan nan nan nan nan nan nan nan nan nan nan nan nan nan nan nan nan nan nan nan nan nan nan nan nan nan nan nan nan nan nan nan nan nan nan nan nan nan nan nan nan nan nan nan nan nan nan nan nan 63 61 60 58 57 56 55 55 54 54 54 53 52 50 48 47 46 45 45 46
nan nan nan nan nan nan nan nan nan nan nan nan nan nan nan nan nan nan nan nan nan nan nan nan nan nan nan nan nan nan nan nan nan nan nan nan nan nan nan nan nan nan nan nan nan nan nan nan nan nan nan nan nan nan nan nan nan nan nan nan nan nan nan nan nan nan nan nan 65 65 63 62 59 58 56 56 55 55 55 54 53 52 52 51 49 48 48
nan nan nan nan nan nan nan nan nan nan nan nan nan nan nan nan nan nan nan nan nan nan nan nan nan nan nan nan nan nan nan nan nan nan nan nan nan nan nan nan nan nan nan nan nan nan nan nan nan nan nan nan nan nan nan nan nan nan nan nan nan nan nan nan nan nan nan nan nan 67 66 64 63 61 59 57 57 56 56 57 56 56 55 53 53 51 52
nan nan nan nan nan nan nan nan nan nan nan nan nan nan nan nan nan nan nan nan nan nan nan nan nan nan nan nan nan nan nan nan nan nan nan nan nan nan nan nan nan nan nan nan nan nan nan nan nan nan nan nan nan nan nan nan nan nan nan nan nan nan nan nan nan nan nan nan nan nan nan 68 66 65 63 61 60 59 58 58 58 58 58 56 54 53 53
nan nan nan nan nan nan nan nan nan nan nan nan nan nan nan nan nan nan nan nan nan nan nan nan nan nan nan nan nan nan nan nan nan nan nan nan nan nan nan nan nan nan nan nan nan nan nan nan nan nan nan nan nan nan nan nan nan nan nan nan nan nan nan nan nan nan nan nan nan nan nan nan 70 69 68 67 65 63 62 62 61 60 60 58 57 56 55
nan nan nan nan nan nan nan nan nan nan nan nan nan nan nan nan nan nan nan nan nan nan nan nan nan nan nan nan nan nan nan nan nan nan nan nan nan nan nan nan nan nan nan nan nan nan nan nan nan nan nan nan nan nan nan nan nan nan nan nan nan nan nan nan nan nan nan nan nan nan 74 74 73 72 72 72 71 70 68 66 65 63 62 63 61 59 58
nan nan nan 14 nan nan nan nan nan nan nan nan nan nan nan nan nan nan nan nan nan nan nan nan nan nan nan nan nan nan nan nan nan nan nan nan nan nan nan nan nan nan nan nan nan nan nan nan nan nan nan nan nan nan nan nan nan nan nan nan nan nan nan nan nan nan nan nan nan nan 78 77 77 77 76 77 76 74 72 71 70 68 66 64 63 61 59
16 14 12 12 13 15 nan nan nan nan nan nan nan nan nan nan nan nan nan nan nan nan nan nan nan nan nan nan nan nan nan nan nan nan nan nan nan nan nan nan nan nan nan nan nan nan nan nan nan nan nan nan nan nan nan nan nan nan nan nan nan nan nan nan nan nan nan nan nan nan nan 70 73 75 76 75 76 75 75 75 73 71 67 65 63 62 61
15 14 13 12 12 13 14 nan nan nan nan nan nan nan nan nan nan nan nan nan nan nan nan nan nan nan nan nan nan nan nan nan nan nan nan nan nan nan nan nan nan nan nan nan nan nan nan nan nan nan nan nan nan nan nan nan nan nan nan nan nan nan nan nan nan nan nan nan nan nan nan nan nan 62 64 65 68 71 71 70 69 68 67 65 64 63 62
nan 14 15 13 12 12 12 13 nan nan nan nan nan nan nan nan nan nan nan nan nan nan nan nan nan nan nan nan nan nan nan nan nan nan nan nan nan nan nan nan nan nan nan nan nan nan nan nan nan nan nan nan nan nan nan nan nan nan nan nan nan nan nan nan nan nan nan nan nan nan nan nan nan nan nan nan nan nan nan nan nan nan nan nan nan nan nan
nan nan 16 14 13 11 nan nan nan nan nan nan nan nan nan nan nan nan nan nan nan nan nan nan nan nan nan nan nan nan nan nan nan nan nan nan nan nan nan nan nan nan nan nan nan nan nan nan nan nan nan nan nan nan nan nan nan nan nan nan nan nan nan nan nan nan nan nan nan nan nan nan nan nan nan nan nan nan nan nan nan nan nan nan nan nan nan
nan nan 16 nan nan nan nan nan nan nan nan nan nan nan nan nan nan nan nan nan nan nan nan nan nan nan nan nan nan nan nan nan nan nan nan nan nan nan nan nan nan nan nan nan nan nan nan nan nan nan nan nan nan nan nan nan nan nan nan nan nan nan nan nan nan nan nan nan nan nan nan nan nan nan nan nan nan nan nan nan nan nan nan nan nan nan nan
nan 17 nan 17 nan nan nan nan nan nan nan nan nan nan nan nan nan nan nan nan nan nan nan nan nan nan nan nan nan nan nan nan nan nan nan nan nan nan nan nan nan nan nan nan nan nan nan nan nan nan nan nan nan nan nan nan nan nan nan nan nan nan nan nan nan nan nan nan nan nan nan nan nan nan nan nan nan nan nan nan nan nan nan nan nan nan nan
nan nan 19 20 nan nan nan nan nan nan nan nan nan nan nan nan nan nan nan nan nan nan nan nan nan nan nan nan nan nan nan nan nan nan nan nan nan nan nan nan nan nan nan nan nan nan nan nan nan nan nan nan nan nan nan nan nan nan nan nan nan nan nan nan nan nan nan nan nan nan nan nan nan nan nan nan nan nan nan nan nan nan nan nan nan nan nan
Wind_Direction
nan nan nan nan nan nan nan nan nan nan nan nan nan nan nan nan nan nan nan nan nan nan nan nan nan nan nan nan nan nan nan nan nan nan nan nan nan nan 212 216 219 221 225 227 236 246 252 254 253 253 249 251 255 260 268 273 277 283 279 272 265 259 256 254 252 251 246 242 239 240 241 242 241 238 236 233 232 230 229 227 227 232 236 241 248 249 251
nan nan nan nan nan nan nan nan nan nan nan nan nan nan nan nan nan nan nan nan nan nan nan nan nan nan nan nan nan nan nan 199 200 197 198 nan nan nan nan 215 219 224 225 229 235 243 247 250 250 251 249 252 259 266 274 282 284 286 284 283 276 267 262 258 253 253 251 244 241 240 241 244 244 243 240 238 236 235 234 231 231 232 236 241 246 252 252
nan nan nan nan nan nan nan nan nan nan nan nan nan nan nan nan nan nan nan nan nan nan nan 202 196 197 nan nan nan 197 198 200 200 198 197 197 199 201 204 nan 213 217 222 225 232 237 239 241 244 245 250 255 259 266 271 279 284 288 288 287 286 277 267 259 255 255 252 250 246 244 243 242 243 244 244 241 239 238 235 235 235 237 238 244 248 250 254
nan nan nan nan nan nan nan nan nan nan nan nan nan nan nan nan nan nan nan nan nan nan 205 200 197 nan nan nan 198 199 200 201 201 200 198 198 199 201 203 206 206 209 216 222 227 230 233 236 238 241 247 254 258 264 270 278 284 286 285 286 287 281 271 261 257 258 255 255 252 249 245 245 245 245 243 243 242 240 239 240 239 240 243 246 249 251 251
nan nan nan nan nan nan nan nan nan nan nan nan nan nan 216 213 nan nan nan nan nan 208 203 199 198 199 199 200 203 202 200 200 200 200 199 198 199 201 203 204 204 203 206 215 223 223 225 230 234 243 254 257 260 263 266 270 271 277 280 281 279 278 274 267 261 258 257 258 257 252 249 247 245 244 244 244 244 244 244 242 242 243 245 249 252 253 253
nan nan nan nan nan nan nan nan nan nan nan nan nan nan 221 218 nan nan nan 218 nan nan nan 198 196 196 199 202 205 205 204 202 200 200 200 200 200 201 203 204 202 202 205 208 213 217 221 228 236 240 248 255 254 254 255 258 265 267 270 272 273 276 274 270 264 261 260 260 258 255 252 249 247 247 247 246 245 243 241 242 243 245 248 251 252 255 256
nan nan nan nan nan nan nan 211 nan nan nan nan nan 224 nan nan nan nan nan nan nan nan nan nan 194 192 191 195 199 203 207 206 202 199 199 201 202 201 202 203 204 203 203 206 208 212 215 223 229 232 237 243 245 249 255 261 263 264 267 269 270 272 273 270 265 262 262 261 259 256 254 252 250 250 250 246 247 244 242 243 244 244 246 250 252 255 257
nan nan nan nan nan nan 215 213 210 209 211 nan 231 225 nan nan nan nan nan nan nan nan nan nan nan 193 190 191 198 204 208 208 204 200 199 200 201 201 203 202 203 206 205 206 208 211 213 219 228 230 234 242 245 249 253 258 260 262 263 265 268 270 271 271 269 266 264 261 259 257 255 254 253 253 251 251 251 248 244 242 242 243 246 248 254 257 258
nan nan nan nan nan nan nan 212 210 213 213 220 nan 221 nan nan nan nan nan nan nan nan nan nan nan 194 194 195 204 216 215 208 206 202 199 197 198 200 202 203 203 207 210 208 210 217 220 222 229 229 230 238 243 248 252 255 259 262 262 266 270 271 273 274 272 267 262 260 259 258 255 255 254 253 252 252 251 249 248 245 246 247 249 251 251 254 259
nan nan nan nan nan nan nan 215 212 209 213 212 nan 218 nan nan nan nan nan nan nan nan nan nan 192 191 195 200 212 220 209 206 202 202 200 199 198 199 202 204 204 209 214 215 218 223 230 234 238 236 234 237 241 245 249 252 258 261 266 270 270 270 273 276 273 267 261 260 260 259 257 257 255 251 251 249 252 252 252 250 249 249 250 249 252 253 258
nan nan nan nan nan nan 217 nan 208 212 nan 211 212 212 216 nan nan nan nan nan nan 204 nan 196 192 195 198 205 213 208 204 199 198 197 199 201 201 200 201 201 203 207 217 219 221 228 232 238 242 244 243 242 241 244 249 254 257 261 266 268 270 273 276 276 274 267 260 258 258 259 259 258 254 254 253 251 250 250 250 249 247 247 249 249 251 254 258
nan nan nan nan nan nan nan nan nan nan 209 213 214 215 nan nan nan 216 nan nan nan 203 201 201 203 202 201 202 200 198 195 195 190 194 198 202 200 197 196 198 200 203 212 219 222 230 234 238 244 247 247 242 240 241 246 250 254 259 267 270 269 269 270 272 271 266 258 256 255 257 258 256 254 253 251 250 253 254 251 249 250 250 253 252 256 257 259
nan nan nan nan nan 208 nan nan nan nan 206 211 216 nan nan nan nan nan nan nan nan 204 203 204 203 199 nan 195 193 193 193 191 190 193 199 199 196 192 192 198 197 204 213 217 221 225 229 236 243 245 242 239 239 239 242 246 253 258 262 264 264 265 268 271 273 271 259 256 256 253 251 252 252 252 253 253 254 255 254 252 252 252 256 256 256 257 258
nan nan nan nan nan 208 nan 200 nan nan 208 216 215 nan nan nan nan nan nan nan nan 204 204 201 199 194 192 192 193 193 192 190 188 190 195 195 195 196 196 202 203 206 207 213 219 225 231 237 240 241 238 237 238 240 242 247 253 251 256 262 264 265 269 274 276 271 261 254 253 248 248 250 252 253 252 252 251 254 251 252 255 256 255 254 254 256 259
nan nan nan nan nan nan nan nan 198 nan 203 nan nan nan nan nan nan nan nan nan nan 203 202 199 195 193 192 193 193 193 191 192 190 190 194 195 198 200 199 202 206 204 207 213 218 226 233 237 235 235 237 238 238 239 242 246 247 249 255 260 263 265 268 273 272 268 260 259 253 248 250 253 254 253 251 251 249 249 249 249 252 253 254 252 252 253 255
nan nan nan nan 205 nan nan nan nan nan nan nan nan nan nan nan nan nan nan nan nan 202 202 198 195 192 192 192 194 192 190 189 190 192 194 197 198 199 201 204 203 206 209 211 213 222 225 229 229 229 233 234 234 235 239 240 243 247 251 257 260 263 265 269 267 263 261 259 255 251 254 252 251 251 250 250 249 247 247 245 245 247 246 248 247 247 248
190 190 196 nan nan nan nan nan nan nan nan nan nan nan nan nan 213 nan 208 204 202 nan 203 200 196 194 192 192 194 192 188 187 191 193 195 195 196 198 200 203 201 204 214 214 212 212 219 226 225 225 226 226 227 231 235 240 244 248 250 254 257 259 261 263 262 259 257 254 254 250 249 248 244 240 243 244 242 240 241 240 237 236 239 240 240 238 239
nan nan nan nan nan nan nan nan nan nan nan nan nan nan nan nan nan nan 206 203 202 nan 204 202 198 195 192 192 193 191 188 188 193 195 195 195 195 197 199 201 201 206 212 219 216 211 210 213 214 216 217 218 223 229 235 240 245 245 246 249 253 255 254 255 255 254 256 255 251 246 242 233 230 226 229 230 227 231 231 230 228 229 230 233 237 241 244
nan nan nan nan nan nan nan nan nan nan nan nan nan nan nan nan nan nan nan 203 nan nan nan 203 199 195 194 193 193 191 189 190 194 196 194 194 194 196 199 199 203 207 212 218 216 212 209 206 207 211 212 214 221 227 232 238 240 239 241 243 245 247 248 247 247 247 250 246 242 236 230 224 222 221 222 222 225 228 232 232 233 234 234 238 243 247 249
nan nan nan nan nan nan nan nan nan nan nan nan nan nan nan nan nan nan nan nan 202 nan 204 203 201 197 195 195 194 192 190 191 195 195 194 194 195 196 200 202 207 210 210 214 215 215 214 212 208 209 212 216 220 224 228 230 232 231 233 236 238 241 243 241 240 242 241 241 238 230 228 225 224 224 224 225 228 234 236 238 239 242 245 247 250 252 253
nan nan nan nan nan nan nan nan nan nan nan nan nan nan nan nan nan nan nan nan nan nan nan nan 201 198 195 194 193 192 191 193 196 196 194 196 198 199 200 202 205 208 211 214 214 214 215 215 216 213 212 214 218 222 224 226 228 228 227 230 231 235 238 239 239 239 238 238 235 229 229 227 225 221 220 227 234 236 236 238 240 244 246 248 251 250 253
nan nan nan nan nan nan nan nan nan nan nan nan nan nan nan nan nan nan nan nan nan nan nan 202 202 200 196 194 194 193 192 194 195 195 196 197 199 201 201 204 207 208 210 211 211 211 214 216 219 220 218 217 218 221 224 224 225 227 228 227 229 232 236 238 238 240 238 237 236 232 231 231 231 228 226 227 223 225 232 223 222 225 230 235 235 237 246
nan nan nan nan nan nan nan nan nan nan nan nan nan nan nan nan nan nan nan nan nan nan nan nan 203 201 198 195 195 194 193 194 197 197 198 198 199 201 201 204 207 208 209 209 209 210 211 214 218 221 221 220 220 221 221 222 227 227 228 227 227 229 234 237 240 240 238 237 237 235 232 232 233 236 234 231 230 230 230 229 231 230 230 230 231 234 235
nan nan nan nan nan nan nan nan nan nan nan nan nan nan nan nan nan nan nan nan nan nan nan nan 204 203 199 197 197 196 194 195 197 198 199 200 201 204 205 206 207 209 209 209 209 207 208 213 216 218 221 222 222 223 223 220 221 229 230 228 228 228 231 235 242 244 244 243 241 241 238 237 237 236 238 239 236 232 231 233 236 236 234 232 231 233 238
nan nan nan nan nan nan nan nan nan nan nan nan nan nan nan nan nan nan nan nan nan nan nan nan 204 203 202 200 199 198 196 196 198 199 199 200 203 205 205 206 208 210 211 210 210 208 208 212 217 218 219 220 219 219 219 220 220 224 229 230 230 230 231 235 239 244 248 251 251 251 250 247 242 240 243 243 245 244 240 238 242 243 239 238 237 239 241
nan nan nan nan nan nan nan nan nan nan nan nan nan nan nan nan nan nan nan nan nan nan nan nan nan 203 203 202 202 199 198 198 200 201 202 202 202 204 204 205 208 212 214 214 213 210 206 210 218 220 220 219 219 219 219 217 216 221 224 226 228 227 230 236 238 244 249 252 254 256 257 256 255 255 253 251 249 252 253 251 247 250 249 245 243 248 250
nan nan nan nan nan nan nan nan nan nan nan nan nan nan nan nan nan nan nan nan nan nan nan nan nan 203 203 205 203 202 201 200 202 203 203 204 204 204 204 205 207 210 213 215 216 215 211 209 216 221 220 218 219 220 221 220 219 219 222 225 229 226 223 225 240 243 247 252 256 258 261 261 263 264 262 260 258 259 260 260 259 256 253 252 248 248 258
nan nan nan nan nan nan nan nan nan nan nan nan nan nan nan nan nan nan nan nan nan nan nan nan nan 206 204 205 205 204 204 202 203 204 204 204 205 206 206 206 209 210 210 211 214 216 215 213 212 215 217 217 219 219 222 222 223 225 223 225 228 232 236 237 241 245 249 252 255 257 260 263 265 267 266 266 265 264 264 260 260 260 259 258 260 258 261
nan nan nan nan nan nan nan nan nan nan nan nan nan nan nan nan nan nan nan nan nan nan nan nan nan nan 207 204 nan 206 207 205 202 203 204 204 205 207 208 210 213 213 211 210 212 215 215 213 213 213 214 214 216 218 221 224 224 225 224 225 227 230 235 237 242 247 251 252 253 255 260 262 264 265 266 267 268 268 267 265 264 263 264 266 266 263 261
nan nan nan nan nan nan nan nan nan nan nan nan nan nan nan nan nan nan nan nan nan nan nan nan nan nan nan nan nan 207 207 206 205 203 204 206 206 207 209 212 215 216 213 211 212 214 215 213 212 212 212 212 214 217 220 222 225 226 229 229 229 228 230 229 236 243 245 248 249 253 258 260 261 264 266 266 266 266 266 265 266 267 268 269 268 267 269
nan nan nan nan nan nan nan nan nan nan nan nan nan nan nan nan nan nan nan nan nan nan nan nan nan nan nan nan nan nan nan nan nan 205 204 206 207 208 209 212 216 218 214 211 211 213 214 213 212 212 211 211 213 216 219 221 223 225 226 227 230 230 225 223 232 237 247 249 254 254 254 255 258 258 258 264 268 267 269 269 269 269 270 269 268 268 270
nan nan nan nan nan nan nan nan nan nan nan nan nan nan nan nan nan nan nan nan nan nan nan nan nan nan nan nan nan nan nan nan nan nan nan 206 207 209 210 212 215 218 nan 214 213 214 215 213 212 210 210 212 214 216 218 221 222 224 225 226 226 228 228 221 236 237 239 244 247 249 250 251 252 253 255 259 263 266 267 268 269 270 270 270 269 269 270
nan nan nan nan nan nan nan nan nan nan nan nan nan nan nan nan nan nan nan nan nan nan nan nan nan nan nan nan nan nan nan nan nan nan nan nan nan nan 210 212 214 nan nan nan nan nan nan 214 212 nan nan 211 213 216 218 219 221 224 225 225 227 230 232 230 221 229 234 235 241 243 245 245 248 251 252 256 259 262 264 264 262 261 264 266 269 266 262
nan nan nan nan nan nan nan nan nan nan nan nan nan nan nan nan nan nan nan nan nan nan nan nan nan nan nan nan nan nan nan nan nan nan nan nan nan nan nan nan nan nan nan nan nan nan nan nan nan nan nan nan nan nan 217 218 220 222 223 224 226 227 228 230 230 231 233 235 239 238 238 240 241 244 247 250 254 257 260 261 262 261 260 259 259 260 259
nan nan nan nan nan nan nan nan nan nan nan nan nan nan nan nan nan nan nan nan nan nan nan nan nan nan nan nan nan nan nan nan nan nan nan nan nan nan nan nan nan nan nan nan nan nan nan nan nan nan nan nan nan nan nan nan 219 221 222 224 224 224 225 227 229 232 233 236 237 237 237 237 238 238 240 243 247 251 254 256 258 260 261 261 259 257 257
nan nan nan nan nan nan nan nan nan nan nan nan nan nan nan nan nan nan nan nan nan nan nan nan nan nan nan nan nan nan nan nan nan nan nan nan nan nan nan nan nan nan nan nan nan nan nan nan nan nan nan nan nan nan nan nan nan nan 220 220 223 223 223 225 229 231 232 234 237 239 239 239 238 237 238 241 243 244 246 250 254 256 259 260 261 260 259
nan nan nan nan nan nan nan nan nan nan nan nan nan nan nan nan nan nan nan nan nan nan nan nan nan nan nan nan nan nan nan nan nan nan nan nan nan nan nan nan nan nan nan nan nan nan nan nan nan nan nan nan nan nan nan nan nan nan nan nan nan 222 223 225 227 229 231 233 236 239 241 241 240 239 238 239 240 243 245 247 248 252 255 260 261 262 262
nan nan nan nan nan nan nan nan nan nan nan nan nan nan nan nan nan nan nan nan nan nan nan nan nan nan nan nan nan nan nan nan nan nan nan nan nan nan nan nan nan nan nan nan nan nan nan nan nan nan nan nan nan nan nan nan nan nan nan nan nan nan nan 226 228 229 nan 232 233 236 239 241 243 242 241 241 241 243 245 246 247 250 254 258 262 265 266
nan nan nan nan nan nan nan nan nan nan nan nan nan nan nan nan nan nan nan nan nan nan nan nan nan nan nan nan nan nan nan nan nan nan nan nan nan nan nan nan nan nan nan nan nan nan nan nan nan nan nan nan nan nan nan nan nan nan nan nan nan nan nan nan nan nan nan 232 234 236 238 240 242 242 243 242 243 245 246 247 249 250 253 256 261 265 268
nan nan nan nan nan nan nan nan nan nan nan nan nan nan nan nan nan nan nan nan nan nan nan nan nan nan nan nan nan nan nan nan nan nan nan nan nan nan nan nan nan nan nan nan nan nan nan nan nan nan nan nan nan nan nan nan nan nan nan nan nan nan nan nan nan nan nan nan 236 237 239 240 241 242 244 245 246 247 248 249 251 253 255 257 259 263 267
nan nan nan nan nan nan nan nan nan nan nan nan nan nan nan nan nan nan nan nan nan nan nan nan nan nan nan nan nan nan nan nan nan nan nan nan nan nan nan nan nan nan nan nan nan nan nan nan nan nan nan nan nan nan nan nan nan nan nan nan nan nan nan nan nan nan nan nan nan 237 239 241 243 244 244 246 247 248 249 250 252 254 256 258 260 263 265
nan nan nan nan nan nan nan nan nan nan nan nan nan nan nan nan nan nan nan nan nan nan nan nan nan nan nan nan nan nan nan nan nan nan nan nan nan nan nan nan nan nan nan nan nan nan nan nan nan nan nan nan nan nan nan nan nan nan nan nan nan nan nan nan nan nan nan nan nan nan nan 242 244 246 246 246 247 248 250 251 252 253 255 257 260 262 265
nan nan nan nan nan nan nan nan nan nan nan nan nan nan nan nan nan nan nan nan nan nan nan nan nan nan nan nan nan nan nan nan nan nan nan nan nan nan nan nan nan nan nan nan nan nan nan nan nan nan nan nan nan nan nan nan nan nan nan nan nan nan nan nan nan nan nan nan nan nan nan nan 243 246 247 248 249 249 250 252 253 253 254 256 258 260 262
nan nan nan nan nan nan nan nan nan nan nan nan nan nan nan nan nan nan nan nan nan nan nan nan nan nan nan nan nan nan nan nan nan nan nan nan nan nan nan nan nan nan nan nan nan nan nan nan nan nan nan nan nan nan nan nan nan nan nan nan nan nan nan nan nan nan nan nan nan nan 237 239 241 243 246 247 249 250 251 252 252 252 252 253 255 257 258
nan nan nan 241 nan nan nan nan nan nan nan nan nan nan nan nan nan nan nan nan nan nan nan nan nan nan nan nan nan nan nan nan nan nan nan nan nan nan nan nan nan nan nan nan nan nan nan nan nan nan nan nan nan nan nan nan nan nan nan nan nan nan nan nan nan nan nan nan nan nan 238 239 240 242 244 246 247 248 249 250 251 251 251 251 252 253 254
285 283 268 252 239 233 nan nan nan nan nan nan nan nan nan nan nan nan nan nan nan nan nan nan nan nan nan nan nan nan nan nan nan nan nan nan nan nan nan nan nan nan nan nan nan nan nan nan nan nan nan nan nan nan nan nan nan nan nan nan nan nan nan nan nan nan nan nan nan nan nan 240 241 243 244 245 246 247 248 250 250 250 250 250 251 252 254
287 289 286 274 261 249 238 nan nan nan nan nan nan nan nan nan nan nan nan nan nan nan nan nan nan nan nan nan nan nan nan nan nan nan nan nan nan nan nan nan nan nan nan nan nan nan nan nan nan nan nan nan nan nan nan nan nan nan nan nan nan nan nan nan nan nan nan nan nan nan nan nan nan 244 245 245 244 244 244 246 246 246 246 248 249 250 251
nan 277 279 278 269 265 258 250 nan nan nan nan nan nan nan nan nan nan nan nan nan nan nan nan nan nan nan nan nan nan nan nan nan nan nan nan nan nan nan nan nan nan nan nan nan nan nan nan nan nan nan nan nan nan nan nan nan nan nan nan nan nan nan nan nan nan nan nan nan nan nan nan nan nan nan nan nan nan nan nan nan nan nan nan nan nan nan
nan nan 272 278 278 277 nan nan nan nan nan nan nan nan nan nan nan nan nan nan nan nan nan nan nan nan nan nan nan nan nan nan nan nan nan nan nan nan nan nan nan nan nan nan nan nan nan nan nan nan nan nan nan nan nan nan nan nan nan nan nan nan nan nan nan nan nan nan nan nan nan nan nan nan nan nan nan nan nan nan nan nan nan nan nan nan nan
nan nan 279 nan nan nan nan nan nan nan nan nan nan nan nan nan nan nan nan nan nan nan nan nan nan nan nan nan nan nan nan nan nan nan nan nan nan nan nan nan nan nan nan nan nan nan nan nan nan nan nan nan nan nan nan nan nan nan nan nan nan nan nan nan nan nan nan nan nan nan nan nan nan nan nan nan nan nan nan nan nan nan nan nan nan nan nan
nan 272 nan 274 nan nan nan nan nan nan nan nan nan nan nan nan nan nan nan nan nan nan nan nan nan nan nan nan nan nan nan nan nan nan nan nan nan nan nan nan nan nan nan nan nan nan nan nan nan nan nan nan nan nan nan nan nan nan nan nan nan nan nan nan nan nan nan nan nan nan nan nan nan nan nan nan nan nan nan nan nan nan nan nan nan nan nan
nan nan 282 274 nan nan nan nan nan nan nan nan nan nan nan nan nan nan nan nan nan nan nan nan nan nan nan nan nan nan nan nan nan nan nan nan nan nan nan nan nan nan nan nan nan nan nan nan nan nan nan nan nan nan nan nan nan nan nan nan nan nan nan nan nan nan nan nan nan nan nan nan nan nan nan nan nan nan nan nan nan nan nan nan nan nan nan